Torna al catalogo

ONEWEB-0045

AttivoComunicazioniPO
NORAD 45151·PAYLOAD·🇬🇧 United Kingdom

Lanciato Feb 6, 2020 da Baikonur Cosmodrome

Loading…

Prossimi Passaggi (prossime 24 ore)

TLE

AggiornatoSource: CelesTrak SupGP

Epoca: Sep 14, 2026, 14:34 UTC

1 45151C 20008W   26257.60711065  .00001982  00000+0  55989-2 0  2578
2 45151  87.8984   3.2866 0001922 100.7080  10.9339 13.11417679    13

Traccia ONEWEB-0045 in tempo reale con AllMySat

Download on the App Store